Park Rapids, MN

1:39 AM CST on December 18, 2017 (GMT -0600)
Park Rapids Municipal

Weather History for KPKD - September, 2014

Change the Weather History Date:

Friday, September 5, 2014

  Actual Average Record
Temperature  
Mean Temperature 58 °F -  
Max Temperature 66 °F 74 °F 93 °F (2007)
Min Temperature 51 °F 49 °F 30 °F (1972)
Degree Days  
Heating Degree Days 8    
Growing Degree Days 8 (Base 50)    
Moisture  
Dew Point 46 °F    
Average Humidity 72    
Maximum Humidity 86    
Minimum Humidity 47    
Precipitation  
Precipitation 0.00 in - - ()
Sea Level Pressure  
Sea Level Pressure 30.08 in    
Wind  
Wind Speed 15 mph (WNW)    
Max Wind Speed 24 mph    
Max Gust Speed 31 mph    
Visibility 10 miles    
Events      
Averages and records for this station are not official NWS values.
T = Trace of Precipitation, MM = Missing Value Source: NWS Daily Summary

Daily Weather History Graph

Daily Weather History Graph

Search for Another Location

Airport or City:

Trip Planner

Search our weather history database for the weather conditions in past years. The results will help you decide how hot, cold, wet, or windy it might be!

Date:

Astronomy

Sep. 05, 2014 Rise Set
Actual Time 6:45 AM CDT 7:51 PM CDT
Civil Twilight 6:13 AM CDT 8:22 PM CDT
Nautical Twilight 5:36 AM CDT 9:00 PM CDT
Astronomical Twilight 4:56 AM CDT 9:39 PM CDT
Moon 5:30 PM CDT (9/5) 2:29 AM CDT (9/5)
Length of Visible Light 14h 09m
Length of Day
13h 06m
Waxing Gibbous, 84% of the Moon is Illuminated
Sep 5
Waxing Gibbous
Sep 8
Full
Sep 15
Last Quarter
Sep 24
New
Oct 1
First Quarter

Hourly Weather History & Observations

Time (CDT) Temp. Dew Point Humidity Pressure Visibility Wind Dir Wind Speed Gust Speed Precip Events Conditions
12:08 AM 54.0 °F 48.0 °F 80% 29.92 in 10.0 mi NW 16.1 mph - N/A   Scattered Clouds
12:53 AM 53.1 °F 46.9 °F 80% 29.93 in 10.0 mi NW 16.1 mph - N/A   Scattered Clouds
1:39 AM 54.0 °F 46.9 °F 77% 29.95 in 10.0 mi NW 19.6 mph 27.6 mph N/A   Mostly Cloudy
1:53 AM 53.1 °F 46.9 °F 80% 29.95 in 10.0 mi NW 15.0 mph - N/A   Mostly Cloudy
2:03 AM 53.1 °F 48.0 °F 83% 29.96 in 10.0 mi WNW 16.1 mph - N/A   Scattered Clouds
2:14 AM 53.1 °F 48.0 °F 83% 29.96 in 10.0 mi WNW 16.1 mph - N/A   Mostly Cloudy
2:53 AM 53.1 °F 48.0 °F 83% 29.97 in 10.0 mi WNW 15.0 mph - N/A   Mostly Cloudy
3:07 AM 52.0 °F 48.0 °F 86% 29.97 in 10.0 mi WNW 13.8 mph - N/A   Scattered Clouds
3:53 AM 52.0 °F 48.0 °F 86% 29.98 in 10.0 mi NW 18.4 mph 23.0 mph N/A   Mostly Cloudy
4:53 AM 53.1 °F 46.9 °F 80% 30.03 in 10.0 mi NNW 24.2 mph 31.1 mph N/A   Overcast
5:53 AM 52.0 °F 45.0 °F 77% 30.06 in 10.0 mi NNW 11.5 mph - N/A   Overcast
6:21 AM 51.1 °F 45.0 °F 80% 30.07 in 10.0 mi NNW 11.5 mph - N/A   Partly Cloudy
6:53 AM 51.1 °F 45.0 °F 80% 30.09 in 10.0 mi NW 17.3 mph - N/A   Scattered Clouds
7:53 AM 52.0 °F 46.0 °F 80% 30.12 in 10.0 mi NW 13.8 mph - N/A   Clear
8:53 AM 55.0 °F 46.0 °F 72% 30.14 in 10.0 mi NNW 15.0 mph 20.7 mph N/A   Clear
9:53 AM 53.1 °F 45.0 °F 74% 30.15 in 10.0 mi NW 13.8 mph - N/A   Clear
10:53 AM 57.9 °F 46.0 °F 65% 30.15 in 10.0 mi NW 12.7 mph - N/A   Clear
11:53 AM 60.1 °F 45.0 °F 57% 30.16 in 10.0 mi NNW 16.1 mph 21.9 mph N/A   Partly Cloudy
12:53 PM 62.1 °F 43.0 °F 50% 30.16 in 10.0 mi NW 10.4 mph 20.7 mph N/A   Clear
1:53 PM 63.0 °F 43.0 °F 48% 30.17 in 10.0 mi NNW 12.7 mph - N/A   Partly Cloudy
2:53 PM 64.9 °F 44.1 °F 47% 30.16 in 10.0 mi NW 13.8 mph - N/A   Mostly Cloudy
3:53 PM 63.0 °F 44.1 °F 50% 30.16 in 10.0 mi NW 13.8 mph - N/A   Partly Cloudy
4:53 PM 64.4 °F 44.6 °F 49% 30.14 in 10.0 mi NW 12.7 mph - N/A   Mostly Cloudy
5:53 PM 64.0 °F 46.0 °F 52% 30.14 in 10.0 mi West 10.4 mph - N/A   Mostly Cloudy
6:53 PM 63.0 °F 46.9 °F 56% 30.13 in 10.0 mi West 10.4 mph - N/A   Scattered Clouds
7:53 PM 57.0 °F 48.9 °F 74% 30.12 in 10.0 mi SSW 5.8 mph - N/A   Clear
8:53 PM 53.1 °F 48.0 °F 83% 30.13 in 10.0 mi SW 6.9 mph - N/A   Clear
9:53 PM 52.0 °F 48.0 °F 86% 30.13 in 10.0 mi SW 6.9 mph - N/A   Clear
10:53 PM 53.1 °F 48.0 °F 83% 30.13 in 10.0 mi WSW 6.9 mph - N/A   Clear
11:53 PM 54.0 °F 48.0 °F 80% 30.12 in 10.0 mi WSW 9.2 mph - N/A   Clear